TimeICT,TemperatureF,Dew PointF,Humidity,Sea Level PressureIn,VisibilityMPH,Wind Direction,Wind SpeedMPH,Gust SpeedMPH,PrecipitationIn,Events,Conditions,WindDirDegrees,DateUTC
12:00 AM,84.2,77.0,79,29.80,5.6,Calm,Calm,-,N/A,,Mostly Cloudy,0,2013-04-03 17:00:00
12:30 AM,84.2,77.0,79,29.80,5.6,Calm,Calm,-,N/A,,Mostly Cloudy,0,2013-04-03 17:30:00
1:00 AM,86,80,76,29.76,6,Calm,Calm,,,,Scattered Clouds,,2013-04-03 18:00:00
1:00 AM,84.2,77.0,79,29.77,5.6,Calm,Calm,-,N/A,,Mostly Cloudy,0,2013-04-03 18:00:00
1:30 AM,84.2,77.0,79,29.77,5.6,Calm,Calm,-,N/A,,Mostly Cloudy,0,2013-04-03 18:30:00
2:00 AM,82.4,77.0,84,29.74,5.6,Calm,Calm,-,N/A,,Mostly Cloudy,0,2013-04-03 19:00:00
2:30 AM,82.4,77.0,84,29.74,5.6,Calm,Calm,-,N/A,,Mostly Cloudy,0,2013-04-03 19:30:00
3:00 AM,82.4,77.0,84,29.74,5.6,Calm,Calm,-,N/A,,Mostly Cloudy,0,2013-04-03 20:00:00
3:30 AM,82.4,75.2,79,29.74,5.6,Calm,Calm,-,N/A,,Mostly Cloudy,0,2013-04-03 20:30:00
4:00 AM,80.6,75.2,84,29.74,5.6,Calm,Calm,-,N/A,,Mostly Cloudy,0,2013-04-03 21:00:00
4:30 AM,80.6,73.4,79,29.74,5.6,Calm,Calm,-,N/A,,Mostly Cloudy,0,2013-04-03 21:30:00
5:00 AM,80.6,73.4,79,29.74,5.6,Calm,Calm,-,N/A,,Mostly Cloudy,0,2013-04-03 22:00:00
5:30 AM,80.6,75.2,84,29.74,5.6,Calm,Calm,-,N/A,,Mostly Cloudy,0,2013-04-03 22:30:00
6:30 AM,78.8,75.2,89,29.77,5.6,Calm,Calm,-,N/A,,Mostly Cloudy,0,2013-04-03 23:30:00
7:00 AM,80,77,89,29.73,6,Calm,Calm,,,,Scattered Clouds,,2013-04-04 00:00:00
7:00 AM,78.8,75.2,89,29.77,5.6,Calm,Calm,-,N/A,,Mostly Cloudy,0,2013-04-04 00:00:00
7:30 AM,80.6,77.0,89,29.80,5.6,Calm,Calm,-,N/A,,Mostly Cloudy,0,2013-04-04 00:30:00
8:00 AM,84.2,77.0,79,29.80,5.6,Calm,Calm,-,N/A,,Mostly Cloudy,0,2013-04-04 01:00:00
8:30 AM,86.0,75.2,70,29.80,5.6,Calm,Calm,-,N/A,,Mostly Cloudy,0,2013-04-04 01:30:00
9:00 AM,86.0,77.0,74,29.80,5.0,Calm,Calm,-,N/A,,Mostly Cloudy,0,2013-04-04 02:00:00
9:30 AM,87.8,77.0,70,29.83,5.0,Variable,2.3,-,N/A,,Mostly Cloudy,0,2013-04-04 02:30:00
10:00 AM,89.6,77.0,66,29.83,5.0,Variable,3.5,-,N/A,,Mostly Cloudy,0,2013-04-04 03:00:00
10:30 AM,89.6,77.0,66,29.83,5.0,West,6.9,-,N/A,,Mostly Cloudy,270,2013-04-04 03:30:00
11:00 AM,89.6,77.0,66,29.83,5.0,West,5.8,-,N/A,,Mostly Cloudy,260,2013-04-04 04:00:00
11:30 AM,91.4,77.0,63,29.80,5.0,West,8.1,-,N/A,,Mostly Cloudy,270,2013-04-04 04:30:00
12:00 PM,89.6,77.0,66,29.80,5.6,West,11.5,-,N/A,,Mostly Cloudy,260,2013-04-04 05:00:00
12:30 PM,91.4,77.0,63,29.80,5.6,West,12.7,-,N/A,,Mostly Cloudy,260,2013-04-04 05:30:00
1:00 PM,90,79,64,29.75,6,WNW,8.1,,,,Scattered Clouds,300,2013-04-04 06:00:00
1:00 PM,89.6,77.0,66,29.77,5.6,West,11.5,-,N/A,,Mostly Cloudy,280,2013-04-04 06:00:00
1:30 PM,91.4,77.0,63,29.77,5.6,West,12.7,-,N/A,,Mostly Cloudy,260,2013-04-04 06:30:00
2:30 PM,91.4,77.0,63,29.74,5.6,West,13.8,-,N/A,,Mostly Cloudy,270,2013-04-04 07:30:00
3:00 PM,89.6,77.0,66,29.71,5.6,West,11.5,-,N/A,,Mostly Cloudy,270,2013-04-04 08:00:00
3:30 PM,89.6,77.0,66,29.71,5.6,West,12.7,-,N/A,,Mostly Cloudy,270,2013-04-04 08:30:00
4:00 PM,89.6,77.0,66,29.71,5.6,West,13.8,-,N/A,,Mostly Cloudy,270,2013-04-04 09:00:00
4:30 PM,89.6,78.8,70,29.71,5.6,West,13.8,-,N/A,,Mostly Cloudy,270,2013-04-04 09:30:00
5:00 PM,89.6,77.0,66,29.68,5.6,West,15.0,-,N/A,,Mostly Cloudy,270,2013-04-04 10:00:00
5:30 PM,87.8,77.0,70,29.68,5.0,West,15.0,-,N/A,,Mostly Cloudy,270,2013-04-04 10:30:00
6:00 PM,87.8,77.0,70,29.68,5.0,West,13.8,-,N/A,,Mostly Cloudy,270,2013-04-04 11:00:00
6:30 PM,87.8,77.0,70,29.71,5.0,WNW,10.4,-,N/A,,Mostly Cloudy,290,2013-04-04 11:30:00
7:00 PM,88,79,69,29.68,6,NNW,5.8,,,,Scattered Clouds,340,2013-04-04 12:00:00
7:00 PM,86.0,77.0,74,29.71,5.0,WNW,10.4,-,N/A,,Mostly Cloudy,290,2013-04-04 12:00:00
7:30 PM,87.8,77.0,70,29.74,5.6,WNW,10.4,-,N/A,,Mostly Cloudy,290,2013-04-04 12:30:00
8:00 PM,86.0,77.0,74,29.74,5.6,WNW,10.4,-,N/A,,Mostly Cloudy,290,2013-04-04 13:00:00
8:30 PM,86.0,77.0,74,29.74,5.0,WNW,9.2,-,N/A,,Mostly Cloudy,300,2013-04-04 13:30:00
9:00 PM,86.0,77.0,74,29.77,5.0,WNW,10.4,-,N/A,,Mostly Cloudy,290,2013-04-04 14:00:00
9:30 PM,86.0,77.0,74,29.77,5.0,WNW,9.2,-,N/A,,Mostly Cloudy,290,2013-04-04 14:30:00
10:00 PM,86.0,77.0,74,29.80,5.0,WNW,8.1,-,N/A,,Mostly Cloudy,290,2013-04-04 15:00:00
10:30 PM,86.0,77.0,74,29.80,5.0,WNW,9.2,-,N/A,,Mostly Cloudy,290,2013-04-04 15:30:00
11:00 PM,86.0,77.0,74,29.80,5.0,WNW,6.9,-,N/A,,Mostly Cloudy,300,2013-04-04 16:00:00
11:30 PM,86.0,77.0,74,29.80,5.0,West,9.2,-,N/A,,Mostly Cloudy,280,2013-04-04 16:30:00